EW9957 Weather Reports


Display with metric or nautical units.
time (UTC)temp
F
wind
direction
speed
MPH
gust
MPH
rain 1hr
in
rain 24hr
in
rain mn
in
humidity
%
barometer
mb
20260507230526 67 34 7.0 11.0 0.00 0.00 0.00 71 1015.7
20260507230027 67 35 7.0 13.0 0.00 0.00 0.00 72 1015.7
20260507225602 68 34 6.0 13.0 0.00 0.00 0.00 71 1015.7
20260507225520 68 34 6.0 13.0 0.00 0.00 0.00 71 1015.7
20260507225036 68 35 5.0 11.0 0.00 0.00 0.00 72 1015.8
20260507224519 67 38 8.0 12.0 0.00 0.00 0.00 73 1016.0
20260507224035 67 36 9.0 15.0 0.00 0.00 0.00 73 1016.0
20260507223529 66 35 10.0 15.0 0.00 0.00 0.00 74 1015.9
20260507223031 67 35 10.0 12.0 0.00 0.00 0.00 71 1016.0
20260507222546 69 38 7.0 15.0 0.00 0.00 0.00 70 1016.0
20260507222100 68 36 9.0 15.0 0.00 0.00 0.00 71 1016.0
20260507221613 68 34 10.0 15.0 0.00 0.00 0.00 70 1016.1
20260507221530 68 34 10.0 15.0 0.00 0.00 0.00 70 1016.1
20260507221025 68 34 7.0 13.0 0.00 0.00 0.00 71 1016.0
20260507220601 67 35 9.0 13.0 0.00 0.00 0.00 72 1016.2
20260507220040 67 35 9.0 13.0 0.00 0.00 0.00 72 1016.2
20260507215533 67 38 8.0 14.0 0.00 0.00 0.00 71 1016.2
20260507215027 68 34 10.0 14.0 0.00 0.00 0.00 70 1016.3
20260507214548 69 35 8.0 14.0 0.00 0.00 0.00 69 1016.2
20260507214022 68 35 10.0 14.0 0.00 0.00 0.00 70 1016.3
20260507213558 69 35 7.0 13.0 0.00 0.00 0.00 69 1016.4
20260507213059 68 36 9.0 15.0 0.00 0.00 0.00 71 1016.4
20260507213016 68 36 9.0 15.0 0.00 0.00 0.00 71 1016.4
20260507212552 68 35 9.0 15.0 0.00 0.00 0.00 70 1016.4
20260507212027 68 34 9.0 13.0 0.00 0.00 0.00 70 1016.5
20260507211548 67 36 8.0 13.0 0.00 0.00 0.00 72 1016.5
20260507211027 69 34 10.0 16.0 0.00 0.00 0.00 70 1016.5
20260507210558 68 35 9.0 16.0 0.00 0.00 0.00 69 1016.5
20260507210038 69 34 7.0 15.0 0.00 0.00 0.00 69 1016.5
20260507205517 68 35 11.0 15.0 0.00 0.00 0.00 70 1016.7
20260507205013 69 36 7.0 15.0 0.00 0.00 0.00 69 1016.7
20260507204555 68 37 10.0 15.0 0.00 0.00 0.00 70 1016.7
20260507204513 68 37 10.0 15.0 0.00 0.00 0.00 70 1016.7
20260507204029 69 36 9.0 14.0 0.00 0.00 0.00 68 1016.6
20260507203545 69 35 8.0 14.0 0.00 0.00 0.00 69 1016.6
20260507203104 69 34 9.0 15.0 0.00 0.00 0.00 69 1016.7
20260507202521 69 35 11.0 15.0 0.00 0.00 0.00 69 1016.7
20260507202112 69 35 9.0 16.0 0.00 0.00 0.00 68 1016.7
20260507202030 69 35 9.0 16.0 0.00 0.00 0.00 68 1016.7
20260507201515 70 35 10.0 16.0 0.00 0.00 0.00 68 1016.7
20260507201046 70 35 8.0 12.0 0.00 0.00 0.00 67 1016.7
20260507200600 71 35 6.0 12.0 0.00 0.00 0.00 67 1016.7
20260507200518 71 35 6.0 12.0 0.00 0.00 0.00 67 1016.7
20260507195517 70 35 5.0 12.0 0.00 0.00 0.00 68 1016.7
20260507195112 69 36 8.0 12.0 0.00 0.00 0.00 69 1016.8
20260507195029 69 36 8.0 12.0 0.00 0.00 0.00 69 1016.8
20260507194552 69 34 7.0 12.0 0.00 0.00 0.00 68 1016.7
20260507194107 69 35 7.0 13.0 0.00 0.00 0.00 67 1016.8
20260507193542 71 34 7.0 13.0 0.00 0.00 0.00 66 1016.8
20260507193106 69 36 5.0 13.0 0.00 0.00 0.00 70 1016.8
20260507193023 69 36 5.0 13.0 0.00 0.00 0.00 70 1016.8
20260507192518 68 36 7.0 12.0 0.00 0.00 0.00 69 1016.9
20260507192013 69 35 6.0 12.0 0.00 0.00 0.00 69 1017.0
20260507191559 69 36 7.0 12.0 0.00 0.00 0.00 69 1017.0
20260507191516 69 36 7.0 12.0 0.00 0.00 0.00 69 1017.0
20260507191051 69 35 8.0 14.0 0.00 0.00 0.00 68 1017.1
20260507190526 69 35 8.0 14.0 0.00 0.00 0.00 68 1017.1
20260507190026 69 35 7.0 14.0 0.00 0.00 0.00 68 1017.2
20260507185601 69 34 6.0 14.0 0.00 0.00 0.00 68 1017.2
20260507185015 69 36 8.0 14.0 0.00 0.00 0.00 68 1017.1
20260507184518 70 35 5.0 11.0 0.00 0.00 0.00 67 1017.2
20260507184113 69 34 7.0 11.0 0.00 0.00 0.00 67 1017.2
20260507183606 69 34 7.0 10.0 0.00 0.00 0.00 67 1017.2
20260507183524 69 34 7.0 10.0 0.00 0.00 0.00 67 1017.2
20260507183024 70 32 5.0 9.0 0.00 0.00 0.00 67 1017.3
20260507182559 70 32 4.0 9.0 0.00 0.00 0.00 68 1017.3
20260507182517 70 32 4.0 9.0 0.00 0.00 0.00 68 1017.3
20260507182034 69 35 7.0 9.0 0.00 0.00 0.00 68 1017.3
20260507181537 69 34 6.0 10.0 0.00 0.00 0.00 67 1017.3
20260507181012 69 35 4.0 6.0 0.00 0.00 0.00 66 1017.3
20260507180529 69 34 4.0 8.0 0.00 0.00 0.00 68 1017.4
20260507180031 69 34 3.0 8.0 0.00 0.00 0.00 69 1017.5
20260507175547 68 34 4.0 10.0 0.00 0.00 0.00 69 1017.5
20260507175101 68 36 3.0 10.0 0.00 0.00 0.00 70 1017.6
20260507174521 68 34 6.0 10.0 0.00 0.00 0.00 70 1017.5
20260507174057 67 34 3.0 7.0 0.00 0.00 0.00 71 1017.6
20260507173610 66 36 3.0 8.0 0.00 0.00 0.00 72 1017.7
20260507173527 66 36 3.0 8.0 0.00 0.00 0.00 72 1017.7
20260507173049 67 34 2.0 8.0 0.00 0.00 0.00 71 1017.7
20260507172604 67 36 3.0 8.0 0.00 0.00 0.00 72 1017.7
20260507172521 67 36 3.0 8.0 0.00 0.00 0.00 72 1017.7
20260507172037 66 38 3.0 9.0 0.00 0.00 0.00 73 1017.6
20260507171538 66 34 4.0 9.0 0.00 0.00 0.00 73 1017.7
20260507171112 65 36 4.0 9.0 0.00 0.00 0.00 73 1017.8
20260507170606 66 34 3.0 8.0 0.00 0.00 0.00 75 1017.8
20260507170025 65 35 3.0 6.0 0.00 0.00 0.00 74 1017.7
20260507165601 65 35 4.0 6.0 0.00 0.00 0.00 75 1017.9
20260507165014 65 35 3.0 8.0 0.00 0.00 0.00 76 1017.9
20260507164518 64 36 2.0 8.0 0.00 0.00 0.00 77 1017.9
20260507164054 64 35 4.0 8.0 0.00 0.00 0.00 77 1017.8
20260507163527 63 34 3.0 8.0 0.00 0.00 0.00 79 1017.9
20260507163027 63 36 3.0 7.0 0.00 0.00 0.00 79 1017.9
20260507162522 62 36 3.0 6.0 0.00 0.00 0.00 80 1018.0
20260507162018 62 35 3.0 8.0 0.00 0.00 0.00 80 1018.0
20260507161613 63 38 4.0 8.0 0.00 0.00 0.00 81 1018.1
20260507161046 62 36 3.0 5.0 0.00 0.00 0.00 81 1018.0
20260507160600 63 35 2.0 6.0 0.00 0.00 0.00 80 1018.1
20260507160518 63 35 2.0 6.0 0.00 0.00 0.00 80 1018.1
20260507160040 63 36 3.0 5.0 0.00 0.00 0.00 81 1018.1
20260507155613 62 38 1.0 4.0 0.00 0.00 0.00 81 1018.1
20260507155107 61 36 2.0 6.0 0.00 0.00 0.00 82 1018.2
20260507155024 61 36 2.0 6.0 0.00 0.00 0.00 82 1018.2
20260507154548 61 36 2.0 5.0 0.00 0.00 0.00 81 1018.2
20260507154042 61 35 1.0 3.0 0.00 0.00 0.00 83 1018.2
20260507153614 60 34 2.0 3.0 0.00 0.00 0.00 83 1018.1
20260507153531 60 34 2.0 3.0 0.00 0.00 0.00 83 1018.1
20260507153053 60 38 1.0 2.0 0.00 0.00 0.00 83 1018.1
20260507152547 59 34 0.0 3.0 0.00 0.00 0.00 85 1018.1
20260507152043 59 35 1.0 3.0 0.00 0.00 0.00 86 1018.2
20260507151607 59 34 2.0 3.0 0.00 0.00 0.00 86 1018.2
20260507151021 58 36 1.0 3.0 0.00 0.00 0.00 87 1018.1
20260507150537 58 32 1.0 3.0 0.00 0.00 0.00 86 1018.1
20260507150039 58 37 0.0 3.0 0.00 0.00 0.00 87 1018.1
20260507145553 58 36 0.0 3.0 0.00 0.00 0.00 88 1018.1
20260507145108 58 36 1.0 2.0 0.00 0.00 0.00 87 1018.1
20260507145026 58 36 1.0 2.0 0.00 0.00 0.00 87 1018.1
20260507144526 58 36 0.0 3.0 0.00 0.00 0.00 88 1018.1
20260507144101 57 35 1.0 6.0 0.00 0.00 0.00 89 1018.0
20260507143613 57 35 2.0 6.0 0.00 0.00 0.00 89 1018.0
20260507143034 56 35 2.0 6.0 0.00 0.00 0.00 89 1017.9
20260507142551 56 34 1.0 4.0 0.00 0.00 0.00 89 1017.8
20260507142046 56 38 1.0 6.0 0.00 0.00 0.00 89 1017.8
20260507141547 56 37 1.0 6.0 0.00 0.00 0.00 90 1017.7
20260507141021 56 38 1.0 6.0 0.00 0.00 0.00 90 1017.7
20260507140537 55 34 1.0 9.0 0.00 0.00 0.00 90 1017.6
20260507140020 55 36 3.0 9.0 0.00 0.00 0.00 91 1017.6
20260507135557 55 34 2.0 7.0 0.00 0.00 0.00 91 1017.6
20260507135514 55 34 2.0 7.0 0.00 0.00 0.00 91 1017.6
20260507135110 55 36 2.0 6.0 0.00 0.00 0.00 91 1017.6
20260507134528 55 36 3.0 8.0 0.00 0.00 0.00 91 1017.6
20260507134025 55 36 4.0 8.0 0.00 0.00 0.00 91 1017.5
20260507133521 54 36 4.0 9.0 0.00 0.00 0.00 91 1017.5
20260507133024 55 35 4.0 9.0 0.00 0.00 0.00 91 1017.5
20260507132538 54 38 5.0 9.0 0.00 0.00 0.00 91 1017.5
20260507132053 54 36 3.0 8.0 0.00 0.00 0.00 91 1017.5
20260507131553 54 36 3.0 7.0 0.00 0.00 0.00 91 1017.5
20260507131047 55 36 4.0 6.0 0.00 0.00 0.00 91 1017.5
20260507130541 55 35 4.0 6.0 0.00 0.00 0.00 91 1017.4
20260507130114 55 38 5.0 8.0 0.00 0.00 0.00 91 1017.4
20260507125547 55 34 4.0 8.0 0.00 0.00 0.00 91 1017.3
20260507125022 55 35 3.0 6.0 0.00 0.00 0.00 90 1017.3
20260507124607 55 37 4.0 6.0 0.00 0.00 0.00 90 1017.1
20260507124101 55 35 3.0 8.0 0.00 0.00 0.00 90 1017.2
20260507124018 55 35 3.0 8.0 0.00 0.00 0.00 90 1017.2
20260507123613 55 37 4.0 8.0 0.00 0.00 0.00 89 1017.1
20260507123053 55 36 4.0 6.0 0.00 0.00 0.00 89 1017.1
20260507122547 55 38 3.0 7.0 0.00 0.00 0.00 88 1017.1
20260507122101 55 36 4.0 7.0 0.00 0.00 0.00 88 1017.0
20260507121613 55 35 3.0 5.0 0.00 0.00 0.00 88 1017.0
20260507121027 55 35 3.0 6.0 0.00 0.00 0.00 88 1017.0
20260507120522 56 31 3.0 5.0 0.00 0.00 0.00 88 1016.9
20260507120108 56 35 3.0 6.0 0.00 0.00 0.00 88 1017.0
20260507115601 56 37 2.0 4.0 0.00 0.00 0.00 87 1017.1
20260507115014 56 35 2.0 4.0 0.00 0.00 0.00 88 1017.1
20260507114558 56 35 3.0 4.0 0.00 0.00 0.00 88 1017.1
20260507114107 56 38 3.0 4.0 0.00 0.00 0.00 88 1017.1
20260507113525 56 38 2.0 4.0 0.00 0.00 0.00 88 1017.0
20260507113048 56 36 1.0 3.0 0.00 0.00 0.00 88 1017.1
20260507112543 56 36 1.0 4.0 0.00 0.00 0.00 88 1017.1
20260507112017 56 37 3.0 4.0 0.00 0.00 0.00 88 1017.1
20260507111519 56 36 2.0 3.0 0.00 0.00 0.00 88 1017.2
20260507111054 56 37 2.0 3.0 0.00 0.00 0.00 88 1017.3
20260507110551 56 36 1.0 3.0 0.00 0.00 0.00 88 1017.3
20260507110053 56 35 1.0 3.0 0.00 0.00 0.00 88 1017.2
20260507105547 56 36 0.0 3.0 0.00 0.00 0.00 87 1017.4
20260507105023 56 38 1.0 3.0 0.00 0.00 0.00 88 1017.4
20260507104546 56 38 2.0 3.0 0.00 0.00 0.00 88 1017.3
20260507104021 56 36 1.0 2.0 0.00 0.00 0.00 88 1017.3
20260507103536 56 32 1.0 3.0 0.00 0.00 0.00 88 1017.4
20260507103100 56 37 1.0 4.0 0.00 0.00 0.00 88 1017.5
20260507102553 56 34 1.0 4.0 0.00 0.00 0.00 88 1017.5
20260507102047 56 38 2.0 3.0 0.00 0.00 0.00 88 1017.4
20260507101529 56 36 2.0 3.0 0.00 0.00 0.00 87 1017.4
20260507101024 56 38 1.0 3.0 0.00 0.00 0.00 87 1017.5
20260507100620 56 35 2.0 3.0 0.00 0.00 0.00 87 1017.5
20260507100026 56 35 2.0 3.0 0.00 0.00 0.00 87 1017.5
20260507095603 56 36 1.0 3.0 0.00 0.00 0.00 87 1017.6
20260507095521 56 36 1.0 3.0 0.00 0.00 0.00 87 1017.6
20260507095113 56 35 1.0 3.0 0.00 0.00 0.00 86 1017.6
20260507094516 57 37 2.0 3.0 0.00 0.00 0.00 87 1017.6
20260507094032 56 36 1.0 2.0 0.00 0.00 0.00 87 1017.7
20260507093526 56 35 1.0 2.0 0.00 0.00 0.00 87 1017.9
20260507093106 56 38 0.0 2.0 0.00 0.00 0.00 87 1017.9
20260507093023 56 38 0.0 2.0 0.00 0.00 0.00 87 1017.9
20260507092523 56 36 1.0 2.0 0.00 0.00 0.00 88 1017.9
20260507092017 56 36 0.0 2.0 0.00 0.00 0.00 87 1017.9
20260507091540 56 35 0.0 0.0 0.00 0.00 0.00 88 1017.9
20260507091035 56 32 0.0 0.0 0.00 0.00 0.00 88 1018.0
20260507090551 56 37 0.0 0.0 0.00 0.00 0.00 87 1018.0
20260507090052 56 35 0.0 0.0 0.00 0.00 0.00 87 1018.0
20260507085603 56 36 0.0 0.0 0.00 0.00 0.00 87 1018.0
20260507085520 56 36 0.0 0.0 0.00 0.00 0.00 87 1018.0
20260507085115 56 35 0.0 1.0 0.00 0.00 0.00 87 1018.1
20260507084537 56 35 0.0 1.0 0.00 0.00 0.00 87 1018.2
20260507084031 57 36 0.0 2.0 0.00 0.00 0.00 87 1018.2
20260507083531 57 35 0.0 3.0 0.00 0.00 0.00 87 1018.3
20260507083031 57 38 1.0 3.0 0.00 0.00 0.00 87 1018.3
20260507082526 57 36 0.0 2.0 0.00 0.00 0.00 86 1018.2
20260507082103 57 38 0.0 2.0 0.00 0.00 0.00 86 1018.3
20260507082020 57 38 0.0 2.0 0.00 0.00 0.00 86 1018.3
20260507081523 57 35 1.0 2.0 0.00 0.00 0.00 87 1018.4
20260507081040 57 36 1.0 2.0 0.00 0.00 0.00 87 1018.4
20260507080535 57 36 0.0 0.0 0.00 0.00 0.00 87 1018.5
20260507080056 57 35 0.0 0.0 0.00 0.00 0.00 87 1018.5
20260507075606 57 38 0.0 0.0 0.00 0.00 0.00 86 1018.5
20260507075524 57 38 0.0 0.0 0.00 0.00 0.00 86 1018.5
20260507075040 58 35 0.0 0.0 0.00 0.00 0.00 86 1018.6
20260507074614 58 36 0.0 0.0 0.00 0.00 0.00 87 1018.6
20260507074532 58 36 0.0 0.0 0.00 0.00 0.00 87 1018.6
20260507074047 57 37 0.0 0.0 0.00 0.00 0.00 86 1018.6
20260507073520 57 37 0.0 0.0 0.00 0.00 0.00 86 1018.7
20260507073044 57 35 0.0 0.0 0.00 0.00 0.00 85 1018.7
20260507072518 57 35 0.0 0.0 0.00 0.00 0.00 86 1018.7
20260507072053 57 38 0.0 0.0 0.00 0.00 0.00 85 1018.8
20260507071533 58 35 0.0 0.0 0.00 0.00 0.00 86 1018.8
20260507071107 58 38 0.0 0.0 0.00 0.00 0.00 86 1018.7
20260507070601 57 35 0.0 0.0 0.00 0.00 0.00 85 1018.8
20260507070020 58 36 0.0 0.0 0.00 0.00 0.00 85 1018.7
20260507065516 58 36 0.0 2.0 0.00 0.00 0.00 85 1018.7
20260507065051 58 35 0.0 2.0 0.00 0.00 0.00 85 1018.6
20260507064552 58 35 1.0 2.0 0.00 0.00 0.00 85 1018.7
20260507064107 58 38 0.0 0.0 0.00 0.00 0.00 85 1018.7
20260507064025 58 38 0.0 0.0 0.00 0.00 0.00 85 1018.7
20260507063541 59 36 0.0 1.0 0.00 0.00 0.00 85 1018.7
20260507063023 58 36 0.0 2.0 0.00 0.00 0.00 85 1018.7
20260507062518 58 36 0.0 2.0 0.00 0.00 0.00 85 1018.8
20260507062053 58 38 1.0 2.0 0.00 0.00 0.00 85 1018.7
20260507061514 58 34 0.0 1.0 0.00 0.00 0.00 83 1018.8
20260507061109 58 35 0.0 1.0 0.00 0.00 0.00 84 1018.8
20260507060542 58 38 0.0 0.0 0.00 0.00 0.00 83 1018.8
20260507060106 59 34 0.0 0.0 0.00 0.00 0.00 82 1018.9
20260507055519 59 37 0.0 0.0 0.00 0.00 0.00 83 1018.9
20260507055037 59 36 0.0 0.0 0.00 0.00 0.00 82 1018.9
20260507054518 59 36 0.0 0.0 0.00 0.00 0.00 82 1018.8
20260507054035 59 35 0.0 1.0 0.00 0.00 0.00 81 1018.9
20260507053611 60 34 0.0 2.0 0.00 0.00 0.00 81 1018.9
20260507053529 60 34 0.0 2.0 0.00 0.00 0.00 81 1018.9
20260507053050 60 34 0.0 1.0 0.00 0.00 0.00 81 1018.8
20260507052605 60 38 0.0 0.0 0.00 0.00 0.00 82 1018.7
20260507052523 60 38 0.0 0.0 0.00 0.00 0.00 82 1018.7
20260507052018 60 38 0.0 0.0 0.00 0.00 0.00 81 1018.8
20260507051542 60 35 0.0 0.0 0.00 0.00 0.00 81 1018.7
20260507051017 60 35 0.0 0.0 0.00 0.00 0.00 82 1018.8
20260507050612 61 38 0.0 2.0 0.00 0.00 0.00 82 1018.8
20260507050529 61 38 0.0 2.0 0.00 0.00 0.00 82 1018.8
20260507050032 61 36 0.0 1.0 0.00 0.00 0.00 82 1018.7
20260507045528 60 36 0.0 3.0 0.00 0.00 0.00 83 1018.7
20260507045045 60 38 2.0 3.0 0.00 0.00 0.00 83 1018.6
20260507044546 60 38 2.0 3.0 0.00 0.00 0.00 82 1018.7
20260507044040 61 38 1.0 3.0 0.00 0.00 0.00 82 1018.7
20260507043556 61 36 0.0 4.0 0.00 0.00 0.00 82 1018.7
20260507043513 61 36 0.0 4.0 0.00 0.00 0.00 82 1018.7
20260507043036 61 35 2.0 4.0 0.00 0.00 0.00 83 1018.7
20260507042551 61 36 3.0 6.0 0.00 0.00 0.00 83 1018.7
20260507042047 61 37 3.0 7.0 0.00 0.00 0.00 84 1018.7
20260507041527 61 32 4.0 7.0 0.00 0.00 0.00 84 1018.6
20260507041023 61 36 4.0 5.0 0.00 0.00 0.00 83 1018.6
20260507040558 61 38 3.0 5.0 0.00 0.00 0.00 83 1018.6
20260507040100 61 35 3.0 5.0 0.00 0.00 0.00 82 1018.6
20260507040018 61 35 3.0 5.0 0.00 0.00 0.00 82 1018.6
20260507035514 61 36 3.0 5.0 0.00 0.00 0.00 82 1018.5
20260507035013 61 38 3.0 4.0 0.00 0.00 0.00 82 1018.5
20260507034515 61 38 3.0 6.0 0.00 0.00 0.00 82 1018.4
20260507034031 61 38 4.0 6.0 0.00 0.00 0.00 82 1018.4
20260507033548 61 36 3.0 6.0 0.00 0.00 0.00 82 1018.4
20260507033030 62 36 4.0 5.0 0.00 0.00 0.00 81 1018.3
20260507032547 62 35 3.0 5.0 0.00 0.00 0.00 81 1018.3
20260507032043 62 36 4.0 5.0 0.00 0.00 0.00 79 1018.2
20260507031607 62 35 3.0 4.0 0.00 0.00 0.00 79 1018.1
20260507031056 62 36 2.0 5.0 0.00 0.00 0.00 79 1018.1
20260507031014 62 36 2.0 5.0 0.00 0.00 0.00 79 1018.1
20260507030609 62 37 3.0 6.0 0.00 0.00 0.00 78 1018.1
20260507030527 62 37 3.0 6.0 0.00 0.00 0.00 78 1018.1
20260507030048 63 38 4.0 6.0 0.00 0.00 0.00 78 1018.1
20260507025522 63 36 4.0 6.0 0.00 0.00 0.00 77 1018.1
20260507025039 63 35 3.0 7.0 0.00 0.00 0.00 77 1018.0
20260507024521 63 35 4.0 7.0 0.00 0.00 0.00 76 1017.9
20260507024057 63 36 5.0 7.0 0.00 0.00 0.00 75 1017.9
20260507024014 63 36 5.0 7.0 0.00 0.00 0.00 75 1017.9
20260507023550 63 36 4.0 7.0 0.00 0.00 0.00 74 1017.8
20260507023032 63 35 4.0 8.0 0.00 0.00 0.00 74 1017.8
20260507022549 64 35 3.0 5.0 0.00 0.00 0.00 73 1017.7
20260507022104 64 34 3.0 7.0 0.00 0.00 0.00 72 1017.7
20260507022021 64 34 3.0 7.0 0.00 0.00 0.00 72 1017.7
20260507021607 64 35 5.0 8.0 0.00 0.00 0.00 71 1017.7
20260507021524 64 35 5.0 8.0 0.00 0.00 0.00 71 1017.7
20260507021059 64 35 5.0 8.0 0.00 0.00 0.00 71 1017.6
20260507020613 65 34 6.0 9.0 0.00 0.00 0.00 68 1017.6
20260507020530 65 34 6.0 9.0 0.00 0.00 0.00 68 1017.6
20260507020035 65 34 5.0 10.0 0.00 0.00 0.00 66 1017.6
20260507015548 65 36 5.0 10.0 0.00 0.00 0.00 67 1017.5
20260507015022 65 36 4.0 12.0 0.00 0.00 0.00 67 1017.6
20260507014607 65 36 9.0 12.0 0.00 0.00 0.00 66 1017.5
20260507014020 65 36 5.0 12.0 0.00 0.00 0.00 66 1017.5
20260507013555 65 35 7.0 12.0 0.00 0.00 0.00 66 1017.5
20260507013015 65 34 7.0 11.0 0.00 0.00 0.00 66 1017.5
20260507012552 65 36 8.0 11.0 0.00 0.00 0.00 66 1017.5
20260507012046 65 35 6.0 9.0 0.00 0.00 0.00 66 1017.5
20260507011525 65 35 7.0 13.0 0.00 0.00 0.00 66 1017.5
20260507010517 66 35 6.0 12.0 0.00 0.00 0.00 65 1017.5
20260507010111 65 35 7.0 13.0 0.00 0.00 0.00 65 1017.4
20260507010028 65 35 7.0 13.0 0.00 0.00 0.00 65 1017.4
20260507005523 66 34 9.0 13.0 0.00 0.00 0.00 64 1017.4
20260507005059 66 35 6.0 13.0 0.00 0.00 0.00 65 1017.4
20260507005016 66 35 6.0 13.0 0.00 0.00 0.00 65 1017.4
20260507004541 66 35 10.0 12.0 0.00 0.00 0.00 64 1017.4
20260507004017 66 35 7.0 15.0 0.00 0.00 0.00 63 1017.4
20260507003553 66 34 9.0 15.0 0.00 0.00 0.00 66 1017.3
20260507003015 66 36 7.0 14.0 0.00 0.00 0.00 66 1017.4
20260507002550 66 37 10.0 14.0 0.00 0.00 0.00 67 1017.3
20260507002024 66 35 9.0 14.0 0.00 0.00 0.00 67 1017.3
20260507001526 66 34 8.0 14.0 0.00 0.00 0.00 67 1017.3
20260507001103 66 35 8.0 15.0 0.00 0.00 0.00 68 1017.2
20260507001020 66 35 8.0 15.0 0.00 0.00 0.00 68 1017.2
20260507000515 66 36 10.0 15.0 0.00 0.00 0.00 68 1017.2
20260507000059 67 36 7.0 12.0 0.00 0.00 0.00 67 1017.1
20260506235532 66 36 8.0 12.0 0.00 0.00 0.00 68 1017.1
20260506235107 67 38 8.0 12.0 0.00 0.00 0.00 66 1017.0
20260506234547 67 34 9.0 14.0 0.00 0.00 0.00 66 1017.1
20260506234043 67 35 7.0 15.0 0.00 0.00 0.00 66 1017.0
20260506233517 67 34 10.0 15.0 0.00 0.00 0.00 61 1017.1
20260506233020 67 36 7.0 13.0 0.00 0.00 0.00 64 1017.0
20260506232535 68 36 8.0 14.0 0.00 0.00 0.00 63 1017.1
20260506232030 67 32 8.0 15.0 0.00 0.00 0.00 66 1017.2
20260506231551 66 36 8.0 15.0 0.00 0.00 0.00 67 1017.2
20260506231048 66 36 9.0 15.0 0.00 0.00 0.00 67 1017.3